RH
59 56 53 50 48 47 46 45 44 44 43 43 40 36 31 28 28 28 29 29 29 30 30 29 29 29 30 29 29 29 29 29 28 28 28 28 26 22 22 20 19 20 20 24 28 35 46 57 67 73 79 83 87 91 85 80 76 69 66 62 60 66 76 84 86 81 77 72 68 67 68 68 65 62 60 57 57 58 53 52 56 59 65 72 68 69 70 63
70 68 66 61 56 51 49 48 47 46 45 45 45 44 41 36 31 29 30 29 29 29 30 29 29 28 28 29 29 29 29 28 28 28 28 28 26 25 25 23 20 20 19 20 22 25 31 39 50 58 64 70 78 83 79 76 73 67 65 61 61 70 80 88 88 85 85 84 82 81 79 78 73 69 66 63 63 62 58 58 63 67 71 74 72 72 70 61
71 72 72 71 68 62 56 52 50 50 49 47 46 46 46 45 41 35 32 31 31 29 29 30 29 28 27 27 28 29 29 29 28 27 27 27 26 26 26 26 24 22 21 20 20 21 23 27 34 41 49 57 67 73 72 72 70 66 62 58 66 76 80 85 86 87 87 87 88 88 85 84 80 76 72 70 71 69 69 68 72 75 77 81 78 71 64 55
76 75 74 74 74 71 67 60 55 52 51 51 49 48 46 47 48 45 40 35 34 32 31 30 30 29 28 27 27 28 28 29 29 28 27 26 26 26 25 26 26 25 24 22 20 20 21 22 25 29 36 44 53 61 65 69 69 67 61 61 73 77 76 80 82 85 87 87 88 87 85 84 83 80 73 75 78 76 77 78 80 81 81 85 77 65 55 43
80 80 79 78 77 75 74 69 63 58 54 52 51 51 49 47 47 48 48 43 39 36 34 32 32 31 29 28 27 27 28 28 28 28 27 26 25 25 25 25 25 26 26 25 23 21 21 20 21 23 25 31 38 45 53 61 65 66 66 69 73 72 74 78 78 79 82 85 86 84 80 77 78 80 74 76 78 78 81 81 80 76 78 81 73 61 46 43
80 80 80 80 80 79 77 74 70 65 59 55 52 51 51 50 48 47 48 49 46 41 37 34 33 33 31 30 29 29 28 28 28 28 27 27 26 26 25 24 24 25 25 26 27 25 23 21 20 20 21 24 27 32 38 46 53 57 64 70 71 71 77 80 80 79 79 79 81 81 78 73 72 74 75 78 77 76 80 80 79 74 76 79 70 57 37 48
76 75 75 75 76 77 77 77 75 71 65 60 56 52 50 49 48 47 46 47 49 47 42 37 33 32 33 32 32 32 31 29 28 28 28 27 27 27 26 25 24 24 24 24 26 27 26 23 21 20 21 21 23 24 27 32 38 45 52 60 66 70 76 80 81 82 81 78 77 76 74 73 69 71 76 76 73 74 74 73 76 74 73 74 65 51 34 37
65 61 59 58 59 60 62 65 67 69 67 63 60 55 52 50 47 46 45 45 46 47 46 43 37 32 31 31 32 36 38 34 30 29 28 27 27 27 27 26 25 24 24 23 23 25 26 25 24 22 21 21 22 22 23 25 27 32 39 46 53 60 68 76 79 81 81 78 77 74 71 69 64 69 75 70 68 71 69 65 68 68 64 63 56 46 37 32
48 44 41 38 37 37 38 41 45 50 54 56 57 55 54 51 49 47 44 44 43 43 44 44 44 38 32 30 29 35 42 39 32 29 28 27 27 27 29 28 27 26 25 25 24 23 23 24 25 25 25 23 22 22 21 21 21 24 28 33 38 45 53 62 69 73 75 76 74 72 70 67 63 68 71 65 65 65 63 63 63 63 60 57 52 42 37 36
33 30 29 28 27 27 25 26 27 29 34 38 43 47 49 50 49 48 45 44 42 41 41 41 43 42 38 32 28 34 40 37 33 33 31 29 29 29 31 30 29 27 26 27 25 25 23 23 24 24 26 26 24 23 21 20 20 21 22 25 28 32 37 43 52 57 61 67 67 66 66 64 63 68 67 63 66 65 62 64 60 59 57 54 52 45 37 37
25 23 23 22 22 22 22 22 21 22 23 24 27 31 35 40 44 45 45 44 41 40 39 39 39 41 43 38 34 38 37 32 32 36 35 33 32 31 31 31 30 29 27 27 26 27 26 25 23 22 23 24 25 25 23 22 20 20 20 21 22 24 28 31 36 41 45 51 55 58 59 59 60 62 61 61 70 73 69 66 60 57 57 56 53 47 40 34
19 18 17 17 16 16 16 17 17 18 19 19 20 20 22 25 30 34 38 40 39 39 37 37 37 37 40 41 46 48 35 27 30 35 37 36 35 32 30 30 30 31 29 28 27 27 28 27 25 22 22 22 23 24 24 24 22 21 20 20 20 20 22 24 26 29 33 36 39 44 46 50 53 54 55 62 72 76 72 69 66 63 59 58 55 49 44 35
14 13 13 13 12 13 12 12 13 13 13 14 15 15 16 17 18 21 24 28 32 34 35 35 35 35 36 42 54 53 35 26 28 31 36 39 39 36 32 30 30 31 30 29 28 27 27 27 25 24 23 21 21 22 22 24 23 23 21 20 20 19 20 21 21 22 24 27 28 31 33 37 41 44 48 54 62 65 65 66 67 67 61 57 54 47 43 35
13 12 12 12 12 12 11 11 11 10 10 10 10 10 11 11 12 13 14 17 20 24 29 31 33 33 33 43 56 48 34 31 30 32 37 40 42 40 36 33 32 32 31 30 28 27 27 25 25 24 23 22 21 21 21 21 22 22 22 21 20 19 20 21 19 18 19 21 22 23 25 27 29 32 35 39 45 50 52 55 57 59 57 52 49 45 39 34
13 13 13 13 12 12 11 11 10 9 9 8 8 7 7 7 7 9 10 12 14 16 21 25 30 32 32 43 51 40 31 37 39 37 37 37 39 39 38 35 33 33 32 32 30 27 26 25 24 23 23 23 22 21 20 20 20 20 20 21 21 21 22 23 20 18 18 19 19 21 23 23 23 23 25 27 30 34 37 39 41 43 44 42 40 39 37 33
14 13 13 13 12 11 10 10 9 8 8 7 6 6 6 6 6 7 8 9 11 13 16 19 24 29 35 41 43 35 31 38 41 39 35 33 35 37 37 37 35 34 33 32 31 29 27 25 23 23 23 23 22 22 21 20 19 19 18 19 20 21 22 23 22 20 20 20 20 22 24 24 22 20 20 21 22 23 25 26 28 29 30 31 30 29 31 31
13 12 13 12 12 12 10 9 8 7 6 5 5 5 5 5 6 7 7 8 9 11 13 16 17 24 34 39 38 34 33 35 37 40 39 36 37 37 36 38 38 35 33 32 31 30 28 25 24 23 23 23 22 21 21 19 19 19 18 18 18 19 21 22 22 21 21 22 22 24 26 25 23 20 19 19 19 19 19 20 20 21 21 21 22 22 22 23
11 12 13 13 14 13 12 11 9 8 6 5 5 5 5 5 5 6 6 7 8 8 10 13 14 20 30 36 37 36 33 33 34 39 43 41 39 37 36 38 39 37 35 32 31 30 27 26 25 24 23 22 22 21 20 20 20 20 19 18 18 19 20 21 20 21 21 21 22 23 25 25 24 22 20 19 19 18 18 18 17 17 18 17 16 17 16 16
11 13 13 14 14 12 11 10 9 8 7 6 5 5 5 5 5 5 5 6 7 7 8 9 12 17 24 29 35 37 34 33 34 38 44 45 41 38 37 38 38 37 35 33 32 31 28 26 24 23 22 22 22 22 22 22 22 21 21 20 20 20 21 21 20 20 21 21 21 22 22 22 22 22 22 21 20 20 18 17 17 16 15 15 15 14 14 14
12 13 13 13 12 10 8 7 7 6 5 5 4 4 4 4 5 5 5 5 5 6 6 7 9 14 19 23 28 34 36 34 33 36 42 44 42 39 37 37 37 36 37 36 33 32 30 27 24 23 24 24 24 23 24 24 24 23 23 21 21 22 23 23 22 21 20 20 21 21 20 20 21 20 20 20 20 19 19 17 16 17 16 15 15 14 14 14
13 13 12 11 10 9 6 5 5 4 4 4 3 3 3 3 4 4 5 4 4 4 5 6 7 10 15 18 21 26 31 34 35 38 43 45 43 39 37 37 37 37 39 40 37 33 30 28 27 26 25 25 25 25 25 25 25 25 23 22 23 23 25 25 25 24 21 20 20 20 20 19 19 19 18 18 18 17 18 17 17 17 17 16 15 16 15 15
14 12 10 9 9 8 6 4 4 3 3 3 2 3 2 3 3 3 4 4 4 4 4 5 7 8 10 14 17 20 24 31 36 39 42 45 44 42 40 39 39 41 42 43 40 34 30 29 30 29 27 26 25 24 25 25 25 24 23 23 23 23 26 26 26 27 22 20 20 19 18 18 17 17 17 16 16 16 16 16 16 17 17 17 17 17 17 16
13 10 8 7 7 7 5 3 3 3 3 2 3 2 2 2 2 3 3 4 4 4 4 4 6 7 8 10 14 17 21 26 33 39 41 43 43 42 41 42 44 44 44 43 40 37 36 35 31 29 28 28 27 24 24 24 23 23 23 23 23 24 25 26 28 30 26 23 22 20 18 17 16 15 15 16 15 14 15 16 16 16 16 17 16 16 17 17
12 9 7 5 6 5 4 3 3 3 3 3 2 2 2 2 2 2 2 3 4 4 4 4 5 7 7 8 10 14 18 21 27 36 42 44 44 42 41 43 46 47 47 45 43 42 43 44 41 38 34 29 27 26 25 25 24 24 24 24 26 27 28 29 34 37 33 26 24 21 17 16 15 15 15 15 16 15 16 16 16 17 16 16 17 15 16 16
12 9 6 4 4 4 3 3 3 3 3 3 2 2 2 2 2 2 2 3 3 5 5 4 5 6 6 7 8 11 15 18 21 29 38 44 45 45 43 42 43 46 50 51 50 47 46 51 54 54 50 41 32 28 26 26 26 26 25 26 29 31 32 34 38 43 36 26 23 20 16 17 15 18 19 16 17 16 17 18 16 17 17 16 17 15 15 16
12 8 6 4 3 3 3 3 3 3 3 3 3 2 2 2 2 2 2 2 3 4 5 5 5 5 5 7 8 10 12 16 20 23 32 42 44 44 43 42 42 43 48 52 54 52 51 57 60 58 56 53 43 34 29 28 27 27 27 31 34 34 35 38 39 42 37 27 24 21 19 18 15 23 32 37 41 27 14 18 19 18 17 17 17 15 15 16
12 8 6 4 3 3 3 3 3 3 3 3 3 2 2 2 2 2 2 2 2 3 4 5 5 4 5 6 8 9 11 14 17 20 28 38 45 45 42 42 42 42 43 46 49 51 53 59 61 58 56 53 46 38 33 31 28 28 31 35 38 39 41 42 41 41 38 31 26 23 21 16 16 22 27 48 78 67 31 17 18 19 17 15 16 15 16 16
12 9 6 4 3 3 3 4 3 3 3 3 3 3 2 2 2 2 2 2 2 3 4 5 5 4 4 6 7 9 10 11 14 19 24 32 43 48 48 47 46 45 41 40 44 49 54 56 56 59 58 54 50 45 41 38 35 34 35 37 40 45 47 47 45 42 39 32 25 23 21 17 17 16 17 50 96 94 51 24 20 20 16 15 17 16 16 16
11 9 7 4 4 3 3 3 3 3 3 3 3 3 2 2 2 2 2 2 2 2 4 4 5 4 4 5 8 9 9 9 12 17 21 27 38 47 53 54 52 51 44 39 42 46 52 55 54 56 58 60 63 60 52 48 47 42 38 40 46 50 53 52 48 44 37 28 22 22 22 19 19 16 20 58 103 101 59 29 23 21 16 15 17 17 17 17
12 9 6 5 4 3 3 3 3 4 3 3 3 3 3 2 2 3 2 2 2 2 3 4 5 5 4 5 8 9 9 9 10 13 17 23 31 42 52 55 53 54 51 46 43 43 48 53 53 52 56 69 78 75 69 66 64 53 40 40 47 52 57 56 51 44 34 25 22 24 24 22 21 19 18 41 86 103 69 33 24 24 19 16 17 18 20 21
12 10 7 5 5 4 4 3 3 4 3 4 3 3 3 3 2 3 2 2 2 2 2 3 4 5 6 5 6 8 9 9 9 11 15 19 25 34 43 50 52 52 53 52 50 49 49 51 52 50 53 68 82 86 87 84 78 64 44 36 40 46 53 53 48 40 30 25 24 24 26 24 19 21 24 26 45 62 50 30 26 25 19 16 17 18 22 23
13 10 8 6 6 4 4 4 3 4 4 4 3 3 3 3 3 2 2 3 2 2 3 2 3 5 7 6 5 7 8 8 8 10 13 17 23 29 35 45 52 52 53 55 58 59 55 53 55 53 51 59 75 91 94 85 78 69 51 39 35 37 42 44 43 36 29 28 27 24 25 26 21 20 26 26 24 28 30 31 31 28 23 20 19 19 21 23
15 12 9 8 7 6 4 4 4 4 4 4 4 4 3 3 3 2 3 3 2 3 2 2 3 4 7 7 5 6 7 7 8 10 12 15 20 26 34 43 51 54 57 57 59 64 65 63 60 56 53 52 65 88 94 82 73 68 57 46 38 34 34 36 37 33 30 30 29 27 26 24 23 23 24 24 24 30 35 35 30 28 26 23 22 22 21 23
17 13 11 10 8 7 5 4 4 4 4 4 4 4 4 3 3 3 3 2 2 3 2 2 3 3 7 8 5 5 6 6 8 9 11 14 18 23 31 41 48 54 57 57 56 60 66 70 65 59 56 54 66 90 102 97 91 87 78 61 46 39 36 37 38 35 34 36 34 30 27 23 23 26 27 25 24 31 38 37 32 25 23 24 25 25 22 21
19 15 13 12 10 8 6 4 4 4 4 5 4 4 4 3 4 3 3 3 3 3 3 3 2 3 6 7 5 4 5 6 7 8 9 11 16 22 29 40 49 54 56 56 56 57 62 72 78 77 72 72 86 102 109 108 107 106 99 78 55 43 40 40 43 41 42 46 41 31 27 25 26 29 29 25 23 29 36 38 36 28 24 25 25 26 23 20
21 17 15 15 13 11 8 5 4 4 4 5 4 4 4 4 4 4 3 3 3 3 3 3 2 3 5 7 7 4 5 7 7 7 9 10 15 22 32 43 50 56 62 64 64 63 63 70 85 93 92 91 100 108 108 107 108 107 99 84 65 51 44 42 41 42 46 49 42 33 28 25 27 32 29 24 26 31 35 41 42 36 29 26 24 24 24 20
22 20 18 17 15 12 10 7 5 4 4 5 4 4 4 4 4 4 4 3 3 3 3 3 3 3 4 7 7 5 5 7 7 8 8 11 14 20 31 44 50 57 69 75 77 77 74 77 87 97 100 102 104 105 105 105 107 106 97 90 80 61 48 45 42 40 43 46 42 36 30 27 30 32 28 25 28 33 41 48 51 45 35 28 25 24 24 24
22 22 20 19 17 15 13 10 7 5 4 4 5 4 4 4 4 4 4 4 3 3 3 3 3 3 4 6 7 7 6 5 8 9 8 11 15 20 29 40 50 62 75 82 87 93 89 85 92 101 103 103 103 104 104 103 106 104 100 103 95 69 50 44 41 37 36 39 41 37 30 30 34 32 27 27 31 39 48 52 51 49 40 30 25 25 25 26
21 23 23 20 18 17 16 13 7 5 5 5 4 4 4 4 4 4 4 4 4 4 3 3 3 3 4 5 7 8 7 6 8 9 10 12 15 22 30 41 55 69 81 88 95 103 99 89 91 104 108 105 103 104 102 102 104 101 100 107 100 76 59 51 44 41 38 35 36 34 30 34 40 35 31 31 33 41 51 52 47 45 40 31 26 26 27 28
20 24 26 22 18 17 17 14 8 4 4 5 4 4 4 4 4 4 4 4 4 4 3 3 3 3 4 5 8 9 8 7 8 10 12 13 15 22 31 45 65 77 86 99 106 107 103 97 97 105 107 103 100 101 101 100 102 101 100 103 98 82 68 58 50 46 41 37 36 33 32 40 45 39 37 36 33 41 54 56 48 42 39 34 28 27 28 28
18 23 28 24 18 16 15 14 11 6 4 5 5 4 4 4 4 4 4 4 4 4 3 3 3 3 4 6 8 9 9 7 7 10 12 13 16 22 29 45 66 78 87 101 108 107 103 101 103 104 101 95 91 96 103 102 101 103 102 103 103 94 78 65 56 50 43 38 35 33 37 46 47 44 44 41 36 40 50 57 52 44 39 35 30 31 32 31
19 23 29 26 20 17 16 16 13 8 5 5 5 4 4 4 4 4 4 4 3 3 3 3 3 3 4 7 8 9 10 8 8 9 11 13 17 22 31 46 61 73 84 92 96 105 107 101 101 104 102 99 97 98 102 101 100 101 100 104 108 103 89 75 63 55 49 42 35 32 37 43 45 49 51 44 38 39 46 56 57 49 44 42 39 37 33 33
19 23 27 27 23 19 18 17 15 11 6 5 5 5 5 4 4 4 4 4 4 4 3 3 4 4 5 7 9 10 10 10 10 10 12 16 20 24 30 43 58 72 85 90 91 99 106 102 100 103 104 104 105 106 105 103 102 100 101 104 106 103 94 82 70 60 54 47 38 34 37 39 43 50 50 43 39 39 45 57 61 53 49 55 62 60 48 41
19 21 25 29 26 22 21 19 16 13 8 5 5 5 5 5 4 4 4 4 4 4 4 4 5 6 7 9 11 11 11 11 10 12 15 18 22 25 26 37 55 69 81 93 97 97 102 105 102 104 107 106 106 108 108 105 101 99 98 98 99 102 99 87 74 64 58 52 43 38 39 43 47 51 49 44 42 40 45 60 67 58 49 51 63 72 62 53
18 21 24 29 30 26 23 21 18 15 11 6 6 6 6 5 5 5 5 5 5 5 5 6 6 7 9 11 12 12 12 12 11 13 16 18 20 23 26 33 49 66 82 99 105 102 102 106 106 108 107 103 101 102 102 102 102 99 94 91 95 104 106 100 88 75 66 59 49 42 43 46 49 52 50 45 44 42 47 64 72 64 53 46 47 55 55 49
20 20 22 28 33 29 24 22 19 17 13 8 6 7 7 6 6 6 7 7 8 8 8 8 9 10 10 11 12 12 13 13 14 14 16 17 18 21 28 34 45 65 86 100 105 105 104 104 105 107 106 101 101 104 104 105 106 104 97 92 94 100 105 104 95 83 72 63 52 46 49 56 57 55 51 48 47 44 50 66 72 63 56 52 46 44 45 44
25 20 22 29 35 32 25 22 21 19 16 10 7 7 8 8 8 8 9 10 10 10 11 11 11 12 12 12 13 12 13 14 15 15 15 16 18 21 27 34 43 61 81 96 104 106 106 105 103 102 104 104 102 104 108 108 105 103 100 94 89 88 89 86 80 74 67 58 50 45 48 60 64 60 54 51 50 48 53 66 70 62 58 59 56 51 48 45
31 21 21 27 35 36 28 23 23 21 18 13 8 6 8 9 9 10 11 13 13 13 14 14 13 14 14 14 14 13 13 14 14 15 16 17 20 23 26 31 39 52 69 89 104 106 104 105 103 101 101 104 102 101 105 108 106 106 105 98 89 83 79 75 70 66 61 55 49 42 39 50 62 64 61 57 53 52 57 65 68 64 63 65 63 59 54 49
39 23 20 26 32 36 31 26 27 25 20 16 11 6 8 9 9 11 12 14 15 14 15 17 17 16 16 16 15 13 12 12 13 14 17 20 22 23 25 28 33 42 58 80 100 108 106 103 102 102 101 102 104 103 102 103 106 109 108 101 93 87 82 79 75 70 64 57 51 42 38 48 63 67 63 58 53 52 60 69 69 63 63 65 64 60 56 52
50 30 21 24 28 34 35 31 32 31 23 18 14 9 8 9 9 10 13 14 15 15 16 18 19 18 18 17 15 14 12 11 12 14 16 19 21 21 21 24 28 36 49 70 92 106 110 107 101 101 102 102 102 102 100 101 103 106 106 104 101 98 90 83 78 76 72 62 51 40 38 50 65 65 59 57 53 49 59 72 71 62 62 66 65 61 57 52
61 40 24 22 25 33 39 37 37 38 30 21 17 13 9 10 11 10 12 14 15 15 14 15 18 18 18 17 15 14 14 14 14 17 17 18 21 21 21 25 30 36 45 61 80 95 106 111 110 105 103 103 102 101 101 102 102 101 100 99 101 104 99 88 79 76 71 59 45 36 36 49 64 67 65 66 59 50 61 77 74 64 61 63 65 66 65 61
69 51 30 22 24 32 39 39 39 44 40 26 19 16 12 12 13 11 11 12 12 13 13 13 15 17 17 16 14 13 16 18 19 19 18 19 21 22 25 31 36 41 47 55 66 78 91 104 112 110 105 104 104 102 102 103 104 105 101 93 87 90 93 89 83 77 66 51 39 35 39 50 65 72 71 67 57 53 68 82 78 67 61 58 63 69 70 67
Wind_Speed
60 61 63 65 66 67 68 68 69 69 70 71 71 71 70 69 71 73 75 75 75 74 75 74 74 73 72 71 70 70 69 69 68 66 66 70 71 70 71 73 74 75 75 76 76 75 75 75 75 75 75 73 72 72 72 70 69 67 63 58 54 53 53 55 57 59 60 61 62 65 65 63 62 60 58 56 50 43 44 50 45 41 41 42 43 42 42 43
63 64 64 65 67 69 70 70 71 72 72 73 74 74 74 73 72 73 74 76 77 77 77 77 76 75 74 72 71 71 71 71 70 68 70 72 69 68 70 72 73 74 75 76 76 76 76 77 77 76 74 72 71 72 72 70 69 67 63 59 55 54 56 57 59 61 62 62 64 66 65 63 62 60 57 53 47 42 45 51 47 43 43 43 42 42 42 43
66 67 68 68 69 70 71 73 73 74 75 75 76 76 77 77 77 76 75 76 77 79 80 80 79 78 76 75 73 72 72 72 72 72 74 72 69 69 70 70 71 72 73 75 76 76 77 78 78 76 73 72 71 72 71 69 69 66 64 60 56 57 59 59 60 61 63 64 66 68 66 63 61 59 55 50 45 43 47 52 48 45 45 43 43 43 43 43
68 69 70 71 72 73 74 75 76 77 78 78 79 79 79 80 81 81 80 78 78 79 80 81 81 80 79 77 76 75 74 74 74 74 74 72 71 71 70 70 70 70 72 74 75 76 76 77 77 76 74 73 73 73 70 68 68 66 64 60 59 62 62 62 63 64 65 66 68 69 66 63 60 58 53 47 46 44 49 54 50 47 45 44 45 45 45 44
70 70 71 73 74 76 77 78 79 80 81 81 82 82 83 83 83 84 84 84 82 81 81 82 83 83 82 80 78 77 77 77 76 76 75 73 73 72 71 70 70 70 71 72 73 74 76 76 76 76 75 74 75 73 69 68 68 66 63 61 63 65 64 65 66 65 66 67 69 68 66 63 59 56 51 48 47 45 52 57 53 49 46 46 47 46 44 42
73 73 73 74 76 78 80 81 82 83 84 85 86 86 87 87 87 87 87 87 87 87 85 84 84 84 84 82 81 80 80 79 78 77 76 74 73 73 73 72 71 70 70 71 71 73 74 75 75 74 74 75 75 73 72 73 71 66 62 62 64 66 66 67 68 67 68 69 69 67 65 62 59 55 50 49 48 48 57 60 54 50 48 46 47 47 44 40
75 75 75 76 77 79 81 83 85 87 88 89 89 90 91 91 91 91 90 90 90 91 90 89 87 86 86 84 83 82 82 81 81 79 77 76 74 73 73 73 72 72 71 71 71 72 72 73 73 73 74 74 75 74 75 76 73 67 63 63 65 66 66 68 69 70 70 70 69 67 65 62 59 55 51 51 50 54 62 59 53 52 50 48 48 49 46 43
77 77 77 78 79 81 83 85 88 90 92 93 94 94 95 95 95 95 95 94 93 94 94 93 92 90 88 86 85 83 83 85 84 81 80 78 76 74 74 74 74 73 73 72 72 72 72 71 71 72 72 73 74 75 76 77 73 67 65 66 67 67 67 68 70 70 71 70 70 68 64 62 59 55 55 56 56 61 64 59 54 53 52 52 51 50 49 46
76 76 77 77 78 80 82 84 87 90 93 95 97 98 98 99 99 99 99 98 98 97 96 96 96 95 92 90 87 84 86 89 86 83 82 80 78 77 76 76 76 75 74 74 73 73 72 70 70 71 71 72 74 74 76 75 70 67 68 70 70 69 68 69 70 70 70 70 70 67 64 62 58 56 58 60 60 63 64 60 57 56 54 54 53 52 52 49
73 73 73 74 75 77 78 80 82 85 89 93 96 98 100 102 102 103 103 103 102 101 100 99 98 98 96 94 89 86 90 92 87 84 84 82 81 80 79 79 78 77 76 75 74 73 72 71 72 72 72 72 72 73 74 72 69 69 71 73 72 70 70 70 70 69 68 68 68 66 63 61 59 59 61 60 59 61 62 61 60 58 56 55 54 53 54 52
69 69 70 71 72 73 75 76 78 80 83 86 90 94 98 101 103 105 106 106 106 106 105 103 101 100 99 97 92 92 95 93 88 88 87 85 84 83 82 81 79 78 77 76 75 74 74 74 74 73 72 71 71 71 71 69 69 71 71 72 71 70 71 70 69 68 67 66 66 64 62 62 62 62 61 60 60 61 62 62 60 58 57 55 55 54 55 54
65 65 66 67 68 70 71 73 75 77 79 82 85 88 92 96 100 104 106 107 108 108 107 106 104 102 101 98 95 98 100 95 91 90 88 86 87 86 85 83 81 80 79 78 77 76 76 77 76 73 71 71 71 70 69 68 69 70 69 69 69 69 69 68 68 68 67 66 65 63 62 62 63 62 60 59 61 64 65 63 61 60 58 57 57 56 56 55
61 61 62 63 64 65 67 69 71 74 76 78 81 83 86 89 93 98 102 105 106 108 108 108 107 104 102 98 98 104 103 97 94 90 88 88 88 88 87 85 84 82 81 81 80 79 79 79 77 74 73 72 71 70 69 68 68 68 67 67 67 66 65 66 68 68 67 66 64 63 63 64 64 62 59 59 62 66 65 63 62 61 60 59 58 58 58 57
57 57 58 59 60 62 63 65 67 69 72 74 76 79 81 83 86 89 93 97 101 103 105 106 106 106 103 99 102 107 104 100 97 93 91 91 91 91 89 88 86 85 84 83 82 82 81 80 78 75 74 72 71 71 70 69 68 67 66 64 63 61 60 64 68 67 65 65 64 63 65 67 66 63 60 59 62 65 65 63 62 61 60 59 58 58 58 57
54 54 55 56 57 59 60 62 64 66 67 69 70 72 74 76 78 80 83 87 92 96 100 103 104 104 103 103 106 108 105 102 101 98 97 95 94 94 92 90 89 87 86 85 84 83 83 81 78 75 74 73 73 71 69 69 67 66 64 60 59 57 58 63 66 64 63 63 62 62 64 66 66 64 61 61 63 65 66 63 62 61 60 58 58 57 56 57
51 51 52 54 55 57 58 60 62 63 64 65 65 65 65 66 67 71 75 79 83 87 93 98 100 101 104 106 109 110 107 105 103 102 100 97 97 96 94 92 90 89 88 87 86 85 84 82 78 76 75 74 73 71 70 69 66 64 60 57 57 57 58 62 63 61 61 61 60 60 62 64 64 63 62 62 63 65 65 64 63 62 60 59 57 57 56 57
48 49 50 51 53 54 56 58 60 60 61 61 59 58 57 58 60 64 67 71 75 80 85 92 94 96 102 108 112 113 109 105 103 102 101 100 100 99 95 93 91 91 90 89 88 86 85 82 79 77 76 74 73 71 70 66 62 61 59 57 58 58 59 61 61 60 59 59 58 58 60 61 62 61 60 61 62 63 63 63 63 62 60 59 58 57 57 57
47 46 47 48 49 51 53 56 57 58 58 55 52 50 49 50 54 58 61 63 68 73 79 84 87 91 100 107 113 114 110 106 103 102 103 103 104 101 97 95 94 93 92 91 88 87 85 82 80 78 76 74 71 69 65 61 61 61 60 59 59 58 59 60 60 60 59 59 58 58 59 60 59 58 57 58 59 60 61 62 61 61 60 58 57 56 56 57
45 44 44 44 45 47 50 52 54 55 55 52 50 47 45 45 47 51 55 59 63 67 72 77 80 86 95 104 111 113 110 106 105 103 104 105 106 104 100 98 96 94 93 90 88 87 85 83 81 77 73 70 67 65 63 63 64 65 64 62 60 59 59 59 60 60 60 59 58 58 59 59 57 56 56 57 57 58 58 59 59 58 58 56 55 54 54 56
44 43 42 42 43 44 47 49 50 51 51 50 49 46 44 44 43 45 49 54 59 63 66 69 73 80 90 99 105 110 109 107 105 104 105 106 107 105 102 100 98 95 92 90 88 87 86 83 79 74 70 69 69 68 67 67 68 67 65 63 61 60 60 60 60 61 61 60 59 59 59 57 56 57 57 56 56 56 55 55 55 54 53 52 51 50 51 53
45 44 42 41 41 42 44 46 47 47 47 46 45 44 43 42 41 41 43 49 55 59 61 63 67 75 86 94 99 103 106 106 105 105 106 107 106 105 103 101 99 95 92 90 89 88 86 81 75 72 73 74 74 72 70 70 70 68 66 64 62 61 60 60 60 62 64 62 61 61 59 57 56 57 57 56 55 55 54 52 51 50 50 49 48 48 48 49
47 45 43 41 40 41 42 42 43 43 43 42 41 40 39 39 39 39 40 44 49 53 57 59 63 72 82 89 93 97 100 102 104 106 107 107 107 105 103 101 99 96 95 93 91 88 83 76 73 75 77 76 76 74 72 72 71 69 67 64 63 61 61 61 61 63 65 63 62 62 59 58 57 56 55 55 55 54 52 50 49 49 49 49 48 47 47 47
48 47 45 42 40 40 40 39 39 39 38 37 36 35 35 34 35 37 38 40 42 48 54 56 61 69 77 83 88 91 94 98 101 104 106 107 107 105 104 102 100 99 98 95 91 85 79 75 77 79 78 77 77 75 74 73 71 69 66 64 63 62 62 61 60 63 65 64 63 63 60 58 57 54 53 53 53 52 50 49 49 50 51 51 50 48 47 46
50 49 46 43 39 38 37 36 35 35 33 32 31 30 30 30 31 34 36 37 38 42 48 52 58 66 72 77 82 85 89 93 97 101 105 107 108 106 104 102 101 100 98 95 91 86 81 80 81 80 78 78 77 75 74 73 70 68 66 63 62 62 62 61 61 64 67 66 65 64 60 57 54 52 52 52 52 50 49 48 48 50 52 52 51 49 48 46
52 50 48 43 39 36 35 33 31 31 29 28 27 26 26 25 27 30 33 34 34 37 43 48 55 64 69 71 75 79 83 86 91 97 102 106 108 107 105 104 102 100 98 95 92 89 86 85 84 81 79 78 75 74 72 70 69 67 65 63 63 63 62 63 64 67 69 68 65 63 59 55 52 50 49 49 49 49 48 47 47 50 51 51 51 51 49 47
54 51 48 44 40 36 33 31 29 28 25 25 24 24 23 22 24 27 29 31 30 34 42 47 55 63 65 65 69 75 79 82 87 92 97 102 105 106 105 104 102 99 98 97 95 92 89 88 87 84 80 78 75 73 70 69 69 66 64 64 65 65 64 65 67 68 69 67 64 62 58 54 52 48 44 44 47 49 49 47 47 51 51 50 50 51 50 48
55 52 49 46 41 36 33 30 27 25 23 21 21 21 22 21 22 23 25 27 27 33 40 45 52 59 60 63 68 73 76 79 83 87 92 98 102 103 103 100 99 98 99 99 97 94 90 89 88 85 81 79 75 71 67 66 66 64 64 67 67 67 66 68 69 69 68 67 65 62 57 54 53 50 45 42 44 48 49 47 48 53 53 49 48 49 49 48
56 54 51 47 43 38 34 30 26 24 21 19 18 18 19 20 20 21 22 25 26 31 38 44 50 54 57 60 64 68 73 78 81 85 90 95 100 102 101 99 98 98 99 98 95 93 90 90 89 86 83 79 73 69 67 66 64 63 66 68 68 69 69 70 71 70 69 69 65 60 56 53 51 49 44 40 41 46 47 47 49 54 53 48 46 48 49 48
58 55 52 49 45 40 35 30 26 22 20 17 16 15 16 17 18 19 20 23 25 29 35 41 46 50 53 57 61 66 72 77 81 85 89 94 98 100 101 101 101 101 99 95 93 93 93 91 90 88 83 77 72 70 68 67 65 66 69 69 70 71 71 72 72 72 71 70 63 56 52 50 47 47 43 38 40 46 47 48 50 52 50 46 45 48 50 50
60 57 53 50 47 42 36 31 26 22 19 16 14 13 12 14 15 16 18 21 24 28 32 37 42 46 50 56 62 67 71 75 79 83 88 91 95 98 101 102 103 102 99 94 92 93 93 92 91 87 82 77 75 73 71 69 67 69 71 71 72 72 73 74 73 73 73 66 59 52 49 48 46 45 43 42 47 51 50 48 48 49 47 45 45 48 51 51
62 59 55 52 50 45 39 33 28 23 20 17 14 12 10 11 12 13 15 19 23 26 30 35 39 43 48 55 62 66 71 76 78 82 85 88 91 95 98 101 103 102 99 95 92 91 92 92 89 84 81 79 78 76 74 72 71 72 72 72 74 74 74 74 74 74 69 59 54 51 49 49 47 44 43 45 51 54 51 46 46 49 47 46 47 48 49 51
64 61 57 54 53 49 43 36 30 26 22 19 15 12 9 8 9 10 12 16 21 25 29 33 37 41 46 53 60 66 71 74 76 79 81 83 86 89 92 95 98 98 96 93 90 89 89 88 85 83 82 81 80 78 77 75 73 72 72 72 73 74 74 73 73 70 61 54 54 53 51 49 46 43 44 46 49 51 49 46 46 48 47 48 49 47 48 50
66 63 59 57 55 52 46 39 34 30 26 22 18 14 11 7 7 8 10 12 17 22 27 31 36 39 45 52 59 66 70 70 72 75 78 79 82 85 87 89 92 93 92 91 89 88 86 86 85 85 84 82 81 79 76 73 71 71 70 68 69 70 70 69 68 63 57 55 56 54 52 49 44 42 44 45 48 49 47 45 46 47 47 49 49 48 49 50
67 64 62 60 57 54 48 42 37 34 31 26 21 17 12 8 6 6 8 10 14 18 24 30 34 38 44 50 57 63 65 65 68 73 75 77 80 82 84 86 88 89 90 90 90 88 86 85 85 84 81 80 78 76 73 69 68 69 69 68 68 66 65 64 64 60 57 56 56 55 52 47 43 42 43 46 49 49 46 45 46 47 46 48 49 49 50 50
68 66 64 62 60 57 52 45 40 38 34 29 24 19 14 10 7 5 7 8 11 16 21 26 32 36 42 48 53 57 59 60 65 70 73 75 77 78 80 82 84 86 87 88 87 86 85 83 81 79 77 76 74 73 73 72 71 72 72 71 67 63 62 63 62 60 57 56 56 55 51 46 42 41 43 47 49 47 45 44 46 47 46 47 49 49 50 50
69 67 65 63 61 59 55 50 45 40 36 31 25 20 15 11 8 5 5 7 9 13 18 23 29 34 39 44 48 51 54 58 61 65 68 71 73 76 77 79 81 82 84 84 83 82 82 80 79 77 75 74 73 73 74 73 73 75 75 68 62 62 63 64 63 60 58 57 57 55 50 46 42 41 43 47 46 43 41 42 44 45 46 47 48 49 50 50
69 67 66 64 62 60 58 55 50 44 38 33 27 22 17 13 9 6 5 5 7 10 15 20 26 31 36 42 44 46 51 57 59 61 64 67 70 73 76 78 79 80 81 83 82 80 79 79 79 77 74 73 73 74 75 74 75 77 72 65 64 67 67 64 62 60 58 57 56 54 49 45 43 43 45 46 45 42 40 41 42 44 46 47 48 49 50 51
69 66 65 64 62 61 60 58 52 44 38 32 26 22 18 13 9 6 4 3 5 8 13 17 23 28 34 40 43 44 48 53 56 58 61 64 68 70 74 76 77 78 80 83 83 82 81 81 80 78 76 75 75 77 77 76 76 75 70 67 71 70 65 61 60 58 56 55 55 53 49 45 43 44 44 43 43 41 41 43 43 45 48 48 47 47 49 50
69 66 65 63 61 60 59 57 50 41 35 30 25 21 17 13 9 6 3 2 3 6 10 15 20 26 32 37 41 42 45 49 54 55 57 61 66 69 72 75 76 77 80 82 83 83 83 81 80 80 80 79 79 79 77 75 76 74 71 72 72 68 63 61 59 56 55 54 54 53 49 45 43 42 42 41 41 41 42 43 44 45 47 48 47 46 47 49
69 66 65 63 60 57 55 54 49 41 34 29 25 21 17 13 9 6 4 1 2 6 10 14 19 24 31 35 38 40 43 48 53 55 56 60 64 69 73 75 76 78 80 82 83 84 84 82 81 82 83 83 81 78 73 71 72 72 71 72 70 66 64 62 59 56 54 54 54 52 49 46 44 41 41 42 42 42 42 43 44 45 46 46 46 46 47 48
71 67 64 62 60 57 55 55 52 45 37 31 26 21 17 14 11 8 6 4 4 7 10 13 18 24 29 34 36 39 41 45 50 54 55 58 62 67 71 74 76 78 80 83 85 84 83 82 82 83 83 81 77 73 71 71 71 70 70 70 68 66 64 62 59 56 54 53 52 51 50 48 45 42 43 44 42 41 41 43 44 45 44 45 45 45 46 47
71 67 63 61 60 58 56 56 55 49 40 33 27 22 18 15 13 11 9 7 6 8 11 14 17 22 28 31 33 36 39 42 47 51 53 55 60 65 70 74 76 77 79 82 84 84 83 82 82 81 79 75 73 73 75 75 73 72 71 71 69 67 64 62 59 56 54 52 51 51 51 49 46 44 45 45 42 40 41 42 43 44 43 43 44 44 45 46
71 66 62 60 60 59 57 57 54 50 42 34 28 23 18 16 14 13 12 10 8 10 12 14 18 22 26 30 32 35 39 42 46 50 51 55 60 66 71 75 76 77 79 81 82 83 83 81 80 78 76 75 76 78 78 77 76 75 73 71 68 65 63 62 59 56 55 52 50 50 49 48 46 45 46 44 41 39 41 42 43 43 43 42 42 42 43 45
72 66 62 60 59 58 57 56 53 50 42 34 28 23 19 16 15 14 14 12 10 10 13 15 19 23 26 29 32 35 39 42 46 49 52 56 61 66 70 73 75 76 77 78 79 80 80 78 77 77 77 79 81 82 81 79 77 75 72 69 65 62 61 61 60 57 55 52 49 48 48 47 46 46 46 44 40 39 40 41 43 44 44 43 42 42 43 44
73 67 62 59 57 56 55 53 52 49 43 35 28 24 20 17 16 16 16 15 12 11 13 15 18 24 28 31 34 37 39 41 46 50 53 56 60 64 67 70 73 74 75 76 78 78 77 76 75 75 76 76 76 78 78 76 73 71 69 66 63 61 60 60 60 57 54 51 48 47 47 46 46 46 45 43 40 39 40 41 43 44 45 44 44 45 45 45
74 68 63 59 56 54 52 50 49 48 44 36 29 24 20 17 16 17 17 15 14 14 14 16 18 23 27 31 34 37 40 42 46 51 54 55 57 60 64 68 72 74 75 76 76 76 76 75 74 74 73 72 72 73 72 70 68 67 67 65 64 63 62 61 61 57 54 52 50 47 46 44 45 45 44 41 39 38 39 41 44 45 45 44 44 45 46 47
74 68 62 58 54 52 50 48 47 47 44 37 29 23 20 17 16 17 17 16 16 17 16 17 19 22 26 29 32 36 39 43 46 50 52 53 55 59 64 69 72 74 75 75 74 75 76 75 74 73 73 74 75 75 72 69 68 68 68 66 65 64 64 63 61 57 54 53 50 48 46 45 45 44 42 40 38 37 39 41 43 44 45 44 44 44 45 46
73 68 62 57 53 50 48 47 46 45 43 38 30 23 20 18 15 16 17 16 16 18 18 18 19 22 24 27 30 34 38 42 46 50 52 53 55 59 63 68 71 73 73 73 73 74 76 77 76 75 75 76 77 76 73 70 70 70 69 67 64 63 62 61 58 55 53 51 49 47 46 45 44 43 42 40 38 38 40 41 42 43 44 45 44 44 44 45
73 69 63 57 52 49 47 46 46 44 42 38 32 25 21 18 16 15 17 16 15 17 19 19 19 20 23 25 28 32 36 41 45 49 52 53 55 58 61 64 68 70 71 72 72 74 76 77 77 77 78 78 77 76 73 71 71 70 68 65 63 61 60 58 56 54 52 50 49 47 44 43 43 43 42 40 39 40 41 41 42 44 45 46 45 45 44 44
74 69 63 56 51 48 47 45 44 43 41 38 33 26 22 20 17 16 17 16 15 16 19 20 21 21 23 25 27 30 34 38 42 47 50 52 53 54 56 59 62 65 68 70 71 73 75 76 77 78 78 77 76 74 72 71 70 68 66 64 62 60 59 58 56 54 52 51 50 48 45 43 43 42 41 40 40 40 41 41 44 46 46 46 45 45 45 44
75 68 63 57 51 48 45 42 41 40 39 36 32 26 22 21 19 16 17 17 15 16 18 20 22 22 22 24 27 31 33 35 39 44 48 49 50 50 51 53 57 60 65 68 71 72 74 75 76 77 77 76 75 73 70 68 67 65 64 64 62 61 60 59 57 56 54 53 51 47 43 42 42 41 40 39 40 40 40 43 46 47 47 46 46 45 45 44
76 68 63 58 52 46 43 40 38 37 35 32 29 24 21 20 19 17 17 18 17 17 18 20 22 23 22 24 26 29 32 35 38 42 45 47 48 48 48 50 53 57 61 65 69 70 72 73 74 75 75 74 73 71 68 67 66 64 64 63 61 60 59 58 57 55 54 52 48 44 41 40 40 40 40 40 40 40 42 45 47 47 47 47 46 45 45 44
Wind_Direction
283 280 277 275 273 272 270 268 266 263 261 259 257 255 254 252 251 250 248 247 246 245 245 245 244 243 242 241 240 239 239 238 238 236 235 235 234 234 235 235 234 235 234 235 235 234 234 234 234 234 235 235 235 236 235 234 234 233 233 232 230 229 229 230 230 232 232 235 239 240 239 240 240 241 243 245 245 244 248 252 249 247 247 245 245 247 250 252
285 281 278 275 272 270 268 267 265 264 262 260 258 256 254 252 251 250 249 248 246 245 244 244 244 243 242 240 239 239 239 238 237 236 235 235 234 233 234 234 234 234 234 234 234 234 234 234 235 235 235 235 236 237 236 236 235 234 233 231 229 228 230 230 231 232 233 234 238 240 239 239 239 240 241 243 243 242 247 251 248 246 246 246 246 247 251 253
285 282 279 275 272 269 267 265 264 262 261 260 258 256 254 252 251 249 248 247 247 245 244 243 243 242 242 240 239 238 238 238 237 235 235 235 234 233 233 234 234 234 234 234 234 234 234 234 235 235 235 236 236 237 237 237 237 235 233 231 229 229 229 230 231 232 233 234 237 238 238 238 239 239 240 242 243 240 246 250 248 245 246 247 247 247 250 253
285 281 278 275 272 269 266 263 262 260 259 258 257 256 254 252 251 249 247 246 246 245 245 244 242 241 241 240 239 238 237 237 236 236 235 235 234 234 233 233 233 233 234 234 234 234 234 235 235 235 235 235 236 237 237 237 237 236 234 231 229 229 228 230 230 231 233 234 236 237 237 237 239 240 239 240 242 240 245 248 245 243 244 246 247 248 250 255
285 281 277 273 270 268 265 263 260 258 257 256 255 254 253 252 250 249 248 246 244 244 243 243 242 241 240 239 238 238 237 237 236 236 235 234 234 234 233 233 233 232 233 234 234 234 234 234 235 235 235 235 236 237 237 237 236 235 233 231 230 230 229 230 231 231 232 234 236 236 237 237 238 240 240 240 240 241 246 246 243 242 242 244 247 248 251 256
286 282 277 272 268 266 263 261 259 257 255 254 253 252 251 250 249 248 247 246 244 243 242 242 241 241 240 238 238 237 237 236 236 236 235 234 234 234 234 233 233 233 232 233 234 234 234 234 234 235 235 235 236 236 236 236 235 233 232 231 231 231 230 231 232 232 233 234 235 236 237 237 237 238 240 240 239 239 244 245 242 241 241 242 245 247 248 249
287 282 278 273 268 264 261 259 257 256 254 253 251 250 249 248 247 246 246 245 244 243 242 241 240 239 239 237 236 236 237 237 236 235 235 234 233 234 234 234 234 233 233 233 233 234 234 234 234 234 234 234 235 235 235 236 234 232 231 232 232 232 232 232 233 233 234 235 236 236 236 237 237 237 238 238 236 237 241 242 242 242 241 241 243 247 247 244
287 283 278 274 269 265 261 258 255 253 252 251 250 248 248 247 246 245 244 243 243 242 241 240 239 239 238 237 235 235 236 236 235 234 234 233 233 233 233 233 233 233 233 232 233 233 233 234 233 233 233 234 234 234 235 236 235 233 232 232 232 232 233 233 234 234 235 236 237 237 236 236 236 236 238 237 235 237 241 243 243 243 243 243 244 246 247 244
287 283 279 275 272 268 264 261 258 255 252 251 249 248 246 245 245 244 243 242 242 241 240 240 239 238 237 236 235 234 235 235 234 234 234 233 232 232 232 232 232 232 232 232 232 233 233 233 233 233 233 233 233 233 235 236 235 233 233 232 232 232 232 233 235 235 236 237 238 238 237 237 236 236 238 238 237 239 243 244 243 244 244 245 245 246 246 243
288 284 280 277 274 271 268 265 262 258 256 253 251 249 247 245 244 243 242 242 241 240 239 238 238 237 237 236 234 233 234 234 233 232 233 233 232 231 231 231 232 231 231 231 231 232 232 232 232 232 231 232 232 233 234 235 234 233 233 233 232 232 233 233 235 236 237 238 240 240 239 239 237 236 237 238 240 242 243 243 242 243 244 245 245 245 245 243
288 284 281 278 275 272 269 267 264 261 258 256 253 251 249 247 245 243 242 241 240 239 238 238 237 236 236 235 234 234 234 233 231 231 231 231 231 230 230 230 231 231 231 231 231 231 231 231 231 231 231 232 232 233 234 234 233 233 233 234 233 234 234 235 236 237 238 239 241 241 240 240 238 237 237 239 241 243 243 243 242 242 242 243 243 244 245 244
290 286 283 279 276 273 270 267 265 262 260 257 255 252 250 248 246 245 243 241 240 239 238 237 236 235 235 234 234 234 234 233 231 230 230 230 231 231 230 229 229 230 231 230 230 229 230 231 231 230 230 231 231 232 232 233 233 233 233 234 234 234 236 237 238 238 239 239 241 242 241 241 240 238 237 238 241 242 243 243 243 242 242 242 243 243 245 246
293 289 286 282 279 276 273 270 267 264 261 259 256 254 252 249 247 245 244 243 241 240 238 237 236 235 234 233 233 234 233 232 231 230 230 230 230 231 230 230 229 229 230 230 230 229 229 230 230 229 229 230 231 231 232 232 232 233 233 233 234 235 236 238 239 239 239 240 241 242 243 242 241 239 237 237 240 243 243 243 243 243 243 243 244 244 245 246
297 293 289 286 282 279 276 273 270 267 264 261 259 257 254 252 249 247 245 244 243 241 240 238 237 235 234 231 232 234 233 232 231 230 229 229 229 230 229 229 229 229 229 230 230 230 230 230 229 229 229 230 230 230 231 231 231 232 232 233 234 235 236 238 239 238 239 239 240 241 243 243 242 240 239 238 239 243 244 243 243 243 243 243 243 244 244 244
301 297 293 289 285 282 279 276 273 270 268 265 262 260 258 255 253 251 248 246 244 242 241 240 237 236 233 230 231 234 232 231 230 229 229 228 229 229 228 228 228 228 228 229 230 230 230 230 230 230 230 230 230 230 231 231 232 232 232 232 234 235 235 238 239 239 238 238 239 239 241 242 242 241 240 239 239 242 244 244 244 244 243 243 242 243 243 243
305 300 295 291 287 284 281 278 276 273 271 269 267 264 262 260 257 254 251 248 245 243 241 240 238 236 233 230 231 233 232 230 229 229 229 229 229 229 228 228 228 228 228 228 229 229 230 230 230 230 230 230 231 231 231 231 232 233 233 233 233 233 234 237 239 239 238 238 238 238 240 242 242 241 240 240 240 242 244 245 245 245 245 244 243 243 243 243
307 302 297 293 290 287 284 281 279 277 275 273 272 270 267 263 259 255 251 248 245 242 240 239 238 235 232 231 231 232 232 230 229 228 228 229 229 229 228 228 228 228 228 228 228 229 230 230 230 230 230 230 231 231 232 233 233 234 234 233 233 233 233 236 237 237 237 237 237 237 239 241 242 241 240 241 241 242 243 245 246 246 246 245 244 243 243 243
311 306 300 296 293 289 287 285 283 282 281 280 278 274 269 263 257 253 249 246 243 240 238 237 235 234 232 231 231 232 231 230 228 227 228 228 229 229 228 228 228 228 228 228 228 229 229 230 230 230 230 230 232 233 234 235 235 235 233 232 232 232 233 235 236 236 236 236 236 235 237 239 240 240 240 240 241 241 242 243 245 246 246 245 245 244 244 244
315 310 304 298 294 291 289 287 285 284 284 284 282 278 272 264 256 250 246 243 240 237 235 234 232 231 230 230 230 231 231 229 228 227 226 228 228 228 227 227 228 228 228 228 228 229 230 229 230 230 231 232 233 234 234 234 233 233 232 231 230 231 232 234 235 236 235 235 235 235 235 237 239 239 238 238 239 240 241 242 243 245 246 246 245 245 244 244
320 315 309 302 297 294 292 290 287 285 284 284 282 279 274 267 259 251 244 241 239 236 233 231 228 227 228 229 229 229 229 229 227 226 226 227 228 228 227 227 227 228 228 229 229 229 229 229 229 230 231 232 232 231 231 231 231 231 231 230 230 230 231 233 234 235 235 234 234 234 235 235 236 238 238 238 239 240 240 241 242 243 245 245 244 243 243 243
326 322 316 309 302 299 298 294 290 287 286 283 281 277 273 268 262 253 245 240 237 235 232 229 225 224 225 227 228 228 228 227 226 225 225 226 227 228 227 227 227 227 228 228 228 229 229 229 229 229 229 229 229 228 228 229 230 230 230 229 229 230 231 233 234 236 236 234 234 234 234 234 235 237 238 239 239 240 240 241 242 243 243 244 243 241 240 241
332 327 322 317 310 305 302 298 292 290 287 284 280 276 271 267 262 255 247 239 235 233 231 227 223 222 223 224 225 226 226 226 225 224 224 225 226 227 227 226 226 227 227 228 228 229 229 228 228 229 228 228 228 228 227 228 229 230 230 229 229 229 230 232 234 237 237 236 236 236 235 235 235 236 239 240 241 242 242 242 242 243 243 243 242 240 239 240
336 332 329 324 317 311 307 302 296 293 289 285 281 276 271 266 260 255 248 239 232 230 229 225 222 221 222 222 223 223 223 223 224 224 224 224 225 225 225 225 225 225 226 227 227 228 228 228 228 229 228 228 228 228 228 228 228 229 230 230 230 230 230 232 234 237 238 237 237 236 235 235 237 238 240 242 244 244 244 244 243 243 243 242 242 241 240 241
340 338 334 329 323 317 312 307 302 297 293 288 282 277 271 265 258 252 248 240 231 227 227 223 221 222 221 221 221 221 221 221 221 222 222 223 223 224 224 224 224 224 225 226 226 226 225 226 227 228 228 229 228 228 228 228 229 229 229 230 230 231 231 231 232 236 237 236 236 237 236 236 238 240 241 242 244 246 245 244 244 243 243 242 242 241 240 241
344 342 338 334 330 325 318 314 308 302 297 291 285 278 272 264 255 249 245 241 231 225 225 221 219 221 220 219 219 219 220 220 220 220 221 221 222 222 223 223 223 222 222 223 224 224 223 224 225 225 226 228 228 228 228 228 229 228 229 229 229 230 230 230 231 234 236 236 236 238 237 236 237 239 241 244 245 245 245 244 244 244 243 242 242 241 241 240
347 344 342 339 336 332 325 321 315 309 303 295 289 281 273 263 254 247 243 240 230 222 222 218 217 219 218 216 216 217 217 218 218 219 219 221 221 222 222 222 222 222 221 221 221 222 222 223 224 224 225 226 227 227 227 228 228 228 228 228 228 229 229 230 231 233 236 236 236 236 236 235 235 235 236 242 247 247 245 243 243 244 242 241 241 241 241 241
349 348 347 344 342 338 332 327 322 315 309 299 290 282 274 264 254 247 242 239 229 221 221 217 216 218 216 213 213 214 214 215 216 217 217 219 220 221 222 222 222 222 221 220 220 220 221 222 224 224 225 226 226 226 226 228 228 228 228 228 228 228 229 230 231 232 235 236 235 235 235 234 234 233 231 234 243 248 247 243 241 242 241 239 239 240 240 240
352 352 351 348 346 344 339 334 329 323 315 305 293 282 273 264 255 248 242 236 228 221 219 218 217 217 214 212 212 212 212 213 213 214 215 216 217 219 220 220 221 222 222 221 220 219 220 221 223 224 224 225 226 227 227 227 227 226 227 227 227 227 228 229 230 231 233 234 234 234 235 235 235 236 233 230 238 246 247 244 241 241 241 239 237 239 239 239
355 355 354 353 350 348 344 340 337 331 323 314 301 285 271 262 255 249 243 235 227 221 219 219 217 215 213 209 209 210 211 211 210 210 212 213 214 215 216 217 219 220 222 221 219 219 219 220 222 223 223 224 225 226 227 227 225 225 225 225 225 226 226 228 230 231 232 233 234 234 235 236 235 236 232 224 231 241 241 240 240 242 242 240 237 237 237 237
358 358 358 357 355 352 349 346 344 341 334 326 313 296 276 262 252 247 245 239 229 221 219 218 216 214 210 206 206 209 210 211 210 209 210 210 212 213 213 215 216 218 219 219 219 218 218 219 220 221 221 221 222 224 225 225 224 224 224 224 224 225 226 227 229 231 232 234 235 234 234 235 233 233 231 222 224 233 236 236 238 241 241 239 236 235 236 235
359 360 1 1 360 357 354 351 351 350 346 339 326 311 291 269 252 243 242 241 234 224 218 216 214 212 208 205 206 207 209 210 209 209 209 209 210 211 211 212 214 215 216 216 217 218 218 219 220 220 220 220 221 222 223 223 224 225 226 225 225 225 226 227 229 232 233 235 236 235 233 233 232 231 230 227 227 233 237 236 236 238 240 237 236 235 235 235
0 1 3 4 3 360 357 355 355 356 354 349 339 329 314 286 261 243 237 239 238 229 219 214 211 209 206 205 206 207 209 209 208 208 209 208 209 210 211 212 213 214 214 214 215 216 218 219 219 220 220 220 220 221 222 222 224 226 228 228 228 227 228 229 231 233 235 235 236 235 233 232 231 229 229 231 234 237 238 237 234 236 237 237 238 237 236 234
1 2 4 5 5 2 359 358 358 359 358 355 349 341 330 309 277 252 237 234 237 233 224 215 209 205 203 204 206 208 210 209 207 208 208 207 208 209 210 212 213 213 214 214 214 214 216 217 217 218 219 220 220 221 223 225 226 229 231 231 232 232 232 233 234 235 235 234 235 234 233 231 229 229 230 232 235 237 236 236 236 235 235 237 239 239 237 235
2 3 5 6 5 3 1 0 2 1 359 356 353 348 339 325 300 268 245 232 232 232 227 219 210 203 199 203 208 210 211 208 206 207 207 206 206 207 208 209 211 212 212 213 213 213 213 215 216 217 218 219 220 221 222 224 226 229 231 231 232 233 233 235 235 235 233 232 234 233 233 232 228 226 228 230 233 235 235 235 236 236 235 235 238 238 237 235
2 3 5 6 5 4 3 3 4 3 359 356 353 351 346 336 321 290 260 238 227 227 226 221 214 204 199 202 208 210 211 209 206 206 206 205 204 205 206 208 209 210 212 212 213 212 212 212 214 216 217 218 219 220 221 221 222 225 227 228 230 231 232 233 232 232 230 229 231 232 232 230 226 222 225 231 234 235 236 237 238 239 236 234 236 238 237 235
2 3 5 5 5 4 4 3 3 2 359 356 353 353 351 344 334 312 277 249 231 224 223 220 215 207 199 200 207 209 208 208 208 207 205 204 203 202 204 206 208 209 210 212 213 213 212 211 212 213 214 216 217 218 220 221 223 225 227 227 229 230 231 231 230 229 227 227 229 231 230 228 225 222 225 231 234 234 235 237 239 240 238 236 235 236 237 236
2 3 4 5 4 5 5 4 1 359 357 355 355 354 354 351 344 326 296 258 236 225 220 217 214 208 199 198 204 206 205 205 206 207 205 203 201 201 201 203 206 206 208 210 211 212 212 211 211 211 212 214 215 217 219 220 222 226 227 226 227 228 228 229 229 228 227 226 228 229 228 227 224 223 225 230 234 234 234 235 237 238 238 236 234 234 236 237
1 3 4 4 4 5 5 3 359 355 353 353 355 356 354 354 350 336 312 267 233 221 216 212 210 206 200 198 199 201 202 203 203 205 204 201 199 199 199 201 203 204 205 207 208 209 210 210 210 209 210 210 212 215 216 217 220 224 225 224 226 228 229 230 231 231 229 228 228 228 227 225 223 224 226 229 232 233 233 234 234 236 237 237 234 232 235 237
1 3 4 3 4 5 4 1 357 355 354 354 358 1 359 358 357 352 338 284 219 210 206 203 204 202 199 198 197 197 198 199 200 202 202 200 198 197 198 200 200 201 203 205 206 207 208 208 208 208 208 209 211 214 216 218 221 223 223 224 226 227 229 230 231 230 230 229 229 228 225 223 224 225 227 229 231 232 234 235 235 236 238 238 236 233 233 236
1 3 4 2 3 5 5 2 360 359 360 359 2 5 7 7 8 15 24 48 172 187 190 190 194 196 195 195 194 192 193 195 196 198 199 198 196 195 197 198 199 200 202 203 205 206 206 206 207 208 209 210 211 213 215 218 223 225 225 226 228 228 228 229 229 229 229 228 228 227 224 222 222 224 226 229 230 231 234 236 237 237 238 239 238 235 233 235
1 3 3 1 2 4 6 6 3 2 3 4 5 9 14 19 23 34 51 74 130 158 169 175 184 189 190 191 190 188 189 192 194 194 196 195 194 194 195 196 198 199 200 201 203 205 206 205 206 208 210 211 211 212 213 216 220 223 226 227 228 228 229 229 230 230 230 229 228 226 223 220 220 221 226 228 229 233 236 238 239 239 239 240 239 238 237 237
1 2 2 1 2 4 6 7 4 3 3 5 7 11 19 27 34 44 58 74 109 137 150 161 174 183 184 185 186 183 183 188 191 192 193 192 192 193 194 196 198 199 200 201 202 203 205 206 206 208 209 210 211 212 213 214 216 219 221 224 225 226 227 229 229 230 231 230 228 226 223 221 219 220 225 228 228 232 237 239 241 241 241 241 240 240 240 240
1 1 1 2 3 4 6 6 4 3 3 3 8 13 21 32 43 52 63 74 96 122 138 151 164 174 177 177 179 178 177 182 187 189 190 189 189 192 194 195 197 198 200 201 202 203 204 205 207 207 207 208 210 211 213 213 215 216 218 220 223 225 227 228 229 229 230 229 228 226 224 222 220 221 226 228 227 230 235 239 241 240 240 240 240 241 241 241
1 1 1 2 4 4 5 4 4 3 2 2 8 15 23 36 48 59 68 75 88 113 131 145 158 166 168 169 172 174 175 178 182 184 187 188 188 191 193 194 196 198 200 201 202 204 204 205 206 207 207 208 209 211 212 213 215 217 218 219 220 223 226 229 229 229 229 229 227 225 223 221 219 220 224 226 226 228 232 237 240 240 239 238 238 241 242 241
1 0 1 3 4 5 5 3 3 3 3 3 8 16 25 37 51 61 68 76 88 108 125 139 155 163 164 165 168 171 172 175 179 181 185 188 189 190 192 194 195 197 199 200 202 203 204 205 206 208 209 211 213 215 215 215 216 218 220 220 219 220 223 226 228 229 230 229 227 224 222 222 220 220 223 225 225 228 231 234 238 240 240 238 237 239 241 242
1 359 0 2 4 4 4 3 3 4 3 3 9 18 26 37 53 64 70 79 93 105 118 134 151 161 164 165 168 169 169 172 176 180 183 187 189 188 189 193 196 197 198 200 200 201 203 205 206 208 209 211 214 217 219 218 219 221 222 222 221 221 222 224 226 227 228 228 225 222 220 221 222 222 223 224 226 229 231 233 236 240 242 242 240 240 241 243
1 359 359 2 3 2 2 3 5 5 4 3 9 20 28 38 53 67 75 84 99 109 119 134 149 157 162 165 167 168 168 169 174 179 182 185 187 187 188 192 195 197 198 199 200 200 202 204 206 207 209 210 211 213 216 217 219 222 224 224 224 225 225 227 228 228 228 228 226 221 218 218 221 223 223 223 226 230 232 233 235 239 242 244 244 243 243 244
1 360 359 1 2 1 1 4 6 7 5 4 9 21 31 39 53 68 78 88 102 114 122 131 145 154 158 161 165 167 168 168 172 178 181 183 186 188 189 191 194 196 197 198 199 200 201 203 205 206 208 211 212 213 213 214 217 220 223 225 226 227 229 230 231 230 229 229 228 224 220 218 219 222 223 224 225 229 231 232 234 236 239 242 243 244 245 246
1 1 359 359 0 360 1 5 6 6 6 5 9 20 32 40 52 67 77 86 100 114 121 127 137 148 153 158 164 168 169 170 172 176 180 182 185 188 189 191 193 194 196 198 199 200 202 203 204 206 208 210 213 215 214 215 216 219 222 225 226 228 230 230 231 231 230 229 228 225 221 219 220 221 223 223 224 226 229 230 232 234 236 239 242 243 244 245
2 1 359 357 358 0 2 4 6 6 6 6 9 19 31 40 50 64 76 84 97 113 122 127 134 142 148 155 162 166 170 171 172 175 179 182 186 189 190 190 191 193 195 197 199 200 202 203 205 207 209 211 213 215 216 217 218 220 222 224 226 228 230 230 230 229 228 227 225 222 218 218 220 221 223 225 227 228 229 229 231 233 235 237 240 242 244 244
1 0 359 356 357 0 2 3 6 7 5 5 9 17 31 45 52 64 78 85 97 113 124 129 133 138 146 155 160 163 165 168 170 175 179 182 185 189 190 189 189 191 193 197 199 201 202 203 204 207 210 212 214 215 216 218 221 222 224 225 225 227 229 229 229 227 225 224 223 220 217 217 219 221 223 227 230 230 230 231 231 233 235 236 238 241 243 244
1 360 359 357 356 359 1 2 7 9 4 2 7 14 30 49 59 67 79 90 98 108 118 125 130 134 143 152 157 157 158 162 169 175 179 181 184 186 187 186 186 188 191 195 199 201 202 203 204 206 209 212 214 215 216 218 220 222 225 227 227 227 228 228 227 226 225 223 221 218 216 217 218 221 224 228 229 229 230 232 232 233 235 237 239 241 243 245